Radiation Dose at Monitoring Post of Fukushima Daini Nuclear Power Station
Date,Time,MP-1(microSv/h),MP-2(microSv/h),MP-3(microSv/h),MP-4(microSv/h),MP-5(microSv/h),MP-6(microSv/h),MP-7(microSv/h),Wind Direction,Wind Velocity(m/s),Rain
2022/03/19,00:00,0.157,0.150,0.224,0.215,0.223,0.128,0.087,northwest,11.2,Yes
2022/03/19,00:10,0.157,0.149,0.223,0.215,0.223,0.128,0.087,north-northwest,11.0,Yes
2022/03/19,00:20,0.156,0.149,0.222,0.216,0.223,0.128,0.087,northwest,10.6,Yes
2022/03/19,00:30,0.156,0.149,0.223,0.215,0.223,0.129,0.086,northwest,13.4,Yes
2022/03/19,00:40,0.156,0.149,0.223,0.216,0.223,0.127,0.086,north-northwest,13.1,Yes
2022/03/19,00:50,0.156,0.149,0.224,0.216,0.222,0.127,0.087,northwest,12.1,Yes
2022/03/19,01:00,0.156,0.147,0.224,0.217,0.222,0.127,0.084,northwest,12.4,Yes
2022/03/19,01:10,0.154,0.147,0.224,0.216,0.222,0.126,0.083,north-northwest,11.2,Yes
2022/03/19,01:20,0.155,0.146,0.223,0.216,0.221,0.125,0.083,north-northwest,10.3,Yes
2022/03/19,01:30,0.156,0.146,0.223,0.215,0.222,0.126,0.083,northwest,11.3,Yes
2022/03/19,01:40,0.156,0.147,0.222,0.215,0.221,0.126,0.083,northwest,12.3,Yes
2022/03/19,01:50,0.156,0.148,0.222,0.214,0.221,0.127,0.085,northwest,14.6,Yes
2022/03/19,02:00,0.156,0.148,0.222,0.213,0.221,0.128,0.085,northwest,15.7,Yes
2022/03/19,02:10,0.155,0.148,0.222,0.214,0.222,0.128,0.086,northwest,12.9,Yes
2022/03/19,02:20,0.156,0.149,0.222,0.215,0.222,0.129,0.086,northwest,13.4,Yes
2022/03/19,02:30,0.156,0.148,0.222,0.215,0.221,0.127,0.086,northwest,14.2,Yes
2022/03/19,02:40,0.156,0.148,0.221,0.214,0.221,0.126,0.085,northwest,12.9,Yes
2022/03/19,02:50,0.155,0.148,0.221,0.213,0.221,0.126,0.085,northwest,14.3,Yes
2022/03/19,03:00,0.156,0.145,0.223,0.215,0.222,0.126,0.085,northwest,13.7,Yes
2022/03/19,03:10,0.155,0.146,0.221,0.214,0.221,0.126,0.083,north-northwest,14.8,Yes
2022/03/19,03:20,0.155,0.145,0.222,0.214,0.219,0.125,0.084,north-northwest,13.5,Yes
2022/03/19,03:30,0.155,0.146,0.222,0.214,0.220,0.126,0.084,northwest,13.2,Yes
2022/03/19,03:40,0.154,0.146,0.221,0.214,0.220,0.125,0.083,north-northwest,14.1,Yes
2022/03/19,03:50,0.154,0.146,0.222,0.214,0.220,0.126,0.083,northwest,15.6,Yes
2022/03/19,04:00,0.154,0.146,0.222,0.214,0.220,0.125,0.083,north-northwest,18.2,Yes
2022/03/19,04:10,0.154,0.145,0.221,0.214,0.222,0.125,0.083,northwest,13.7,Yes
2022/03/19,04:20,0.154,0.146,0.223,0.213,0.220,0.125,0.083,north-northwest,14.9,Yes
2022/03/19,04:30,0.154,0.145,0.222,0.214,0.220,0.124,0.083,northwest,11.7,Yes
2022/03/19,04:40,0.154,0.146,0.222,0.213,0.220,0.125,0.083,northwest,12.7,Yes
2022/03/19,04:50,0.154,0.146,0.221,0.214,0.221,0.124,0.082,northwest,12.5,Yes
2022/03/19,05:00,0.154,0.145,0.221,0.214,0.220,0.123,0.083,northwest,13.8,Yes
2022/03/19,05:10,0.154,0.144,0.220,0.213,0.219,0.124,0.081,west-northwest,12.6,Yes
2022/03/19,05:20,0.154,0.144,0.221,0.214,0.219,0.124,0.082,northwest,12.3,Yes
2022/03/19,05:30,0.154,0.144,0.221,0.213,0.221,0.122,0.081,northwest,12.5,Yes
2022/03/19,05:40,0.154,0.145,0.221,0.214,0.220,0.122,0.081,northwest,13.0,Yes
2022/03/19,05:50,0.153,0.143,0.220,0.213,0.219,0.123,0.080,west-northwest,13.2,Yes
2022/03/19,06:00,0.153,0.142,0.220,0.214,0.219,0.122,0.080,northwest,12.5,Yes
2022/03/19,06:10,0.153,0.143,0.220,0.213,0.219,0.121,0.080,northwest,12.1,Yes
2022/03/19,06:20,0.154,0.142,0.220,0.212,0.219,0.122,0.080,northwest,12.2,No
2022/03/19,06:30,0.153,0.142,0.219,0.212,0.219,0.121,0.079,northwest,12.4,No
2022/03/19,06:40,0.151,0.141,0.219,0.212,0.218,0.121,0.079,northwest,10.8,No
2022/03/19,06:50,0.152,0.142,0.219,0.212,0.217,0.120,0.079,northwest,8.5,No
2022/03/19,07:00,0.152,0.141,0.218,0.211,0.217,0.121,0.078,northwest,7.9,No
2022/03/19,07:10,0.151,0.140,0.218,0.210,0.217,0.121,0.078,north-northwest,10.3,No
2022/03/19,07:20,0.151,0.140,0.217,0.212,0.218,0.121,0.078,northwest,8.7,No
2022/03/19,07:30,0.151,0.140,0.218,0.212,0.217,0.120,0.077,west-northwest,7.0,No
2022/03/19,07:40,0.151,0.140,0.220,0.210,0.217,0.120,0.078,northwest,6.2,No
2022/03/19,07:50,0.151,0.139,0.218,0.211,0.218,0.120,0.077,west-northwest,10.0,No
2022/03/19,08:00,0.151,0.141,0.219,0.212,0.217,0.120,0.077,west-northwest,7.0,No
2022/03/19,08:10,0.152,0.140,0.218,0.211,0.218,0.120,0.077,west-northwest,7.1,No
2022/03/19,08:20,0.153,0.140,0.218,0.211,0.217,0.119,0.077,west-northwest,7.7,No
2022/03/19,08:30,0.152,0.141,0.219,0.212,0.217,0.119,0.077,west-northwest,10.5,No
2022/03/19,08:40,0.152,0.140,0.218,0.212,0.218,0.121,0.078,west-northwest,10.0,No
2022/03/19,08:50,0.151,0.139,0.218,0.212,0.219,0.120,0.078,west-northwest,10.3,No
2022/03/19,09:00,0.152,0.141,0.218,0.212,0.218,0.120,0.077,northwest,11.7,No
2022/03/19,09:10,0.152,0.140,0.219,0.213,0.218,0.120,0.078,northwest,13.0,No
2022/03/19,09:20,0.152,0.140,0.219,0.212,0.217,0.121,0.077,northwest,11.5,No
2022/03/19,09:30,0.152,0.139,0.220,0.213,0.218,0.120,0.077,northwest,9.6,No
2022/03/19,09:40,0.152,0.140,0.219,0.211,0.220,0.120,0.078,northwest,7.0,No
2022/03/19,09:50,0.153,0.139,0.219,0.212,0.217,0.120,0.078,north-northwest,7.6,No
2022/03/19,10:00,0.153,0.140,0.219,0.212,0.218,0.120,0.078,north-northwest,5.8,No
2022/03/19,10:10,0.152,0.140,0.219,0.212,0.217,0.120,0.077,northwest,6.3,No
2022/03/19,10:20,0.152,0.141,0.221,0.213,0.218,0.120,0.078,northwest,5.2,No
2022/03/19,10:30,0.151,0.140,0.219,0.212,0.216,0.120,0.077,north-northwest,6.1,No
2022/03/19,10:40,0.151,0.140,0.220,0.211,0.218,0.121,0.079,northwest,7.4,No
2022/03/19,10:50,0.151,0.140,0.219,0.212,0.218,0.120,0.077,north-northwest,7.7,No
2022/03/19,11:00,0.152,0.141,0.221,0.211,0.219,0.121,0.078,northwest,5.7,No
2022/03/19,11:10,0.152,0.140,0.219,0.212,0.218,0.121,0.078,northwest,4.3,No
2022/03/19,11:20,0.152,0.140,0.221,0.212,0.217,0.120,0.078,northwest,5.8,No
2022/03/19,11:30,0.152,0.140,0.219,0.214,0.220,0.120,0.078,west-northwest,8.1,No
2022/03/19,11:40,0.151,0.140,0.220,0.213,0.217,0.120,0.077,west-northwest,5.8,No
2022/03/19,11:50,0.152,0.141,0.220,0.212,0.218,0.120,0.077,west-northwest,7.3,No
2022/03/19,12:00,0.151,0.140,0.220,0.214,0.219,0.121,0.077,west-northwest,6.4,No
2022/03/19,12:10,0.154,0.141,0.220,0.212,0.217,0.121,0.078,west-northwest,9.8,No
2022/03/19,12:20,0.152,0.140,0.219,0.214,0.221,0.121,0.079,northwest,9.6,No
2022/03/19,12:30,0.152,0.141,0.221,0.212,0.219,0.121,0.077,northwest,8.0,No
2022/03/19,12:40,0.152,0.140,0.220,0.215,0.220,0.121,0.079,north-northeast,6.1,No
2022/03/19,12:50,0.154,0.140,0.221,0.214,0.220,0.122,0.078,east-northeast,6.6,No
2022/03/19,13:00,0.153,0.140,0.222,0.214,0.220,0.120,0.078,east-northeast,5.5,No
2022/03/19,13:10,0.153,0.140,0.221,0.213,0.219,0.121,0.078,east-northeast,5.9,No
2022/03/19,13:20,0.152,0.142,0.222,0.215,0.221,0.121,0.077,east,4.7,No
2022/03/19,13:30,0.154,0.141,0.220,0.214,0.220,0.121,0.078,east,4.1,No
2022/03/19,13:40,0.153,0.140,0.222,0.214,0.220,0.121,0.078,east,2.7,No
2022/03/19,13:50,0.152,0.143,0.223,0.214,0.219,0.121,0.078,south-southeast,2.2,No
2022/03/19,14:00,0.153,0.141,0.222,0.213,0.220,0.123,0.077,south-southeast,3.8,No
2022/03/19,14:10,0.153,0.140,0.222,0.215,0.220,0.123,0.078,south-southeast,2.4,No
2022/03/19,14:20,0.153,0.142,0.220,0.215,0.218,0.121,0.079,south,2.5,No
2022/03/19,14:30,0.153,0.142,0.222,0.214,0.220,0.122,0.079,south-southeast,1.9,No
2022/03/19,14:40,0.153,0.142,0.223,0.216,0.218,0.123,0.078,east-southeast,1.9,No
2022/03/19,14:50,0.154,0.141,0.221,0.215,0.220,0.122,0.078,east-southeast,0.8,No
2022/03/19,15:00,0.153,0.140,0.222,0.215,0.218,0.122,0.078,west-northwest,0.5,No
2022/03/19,15:10,0.153,0.141,0.222,0.215,0.220,0.122,0.078,north-northwest,2.4,No
2022/03/19,15:20,0.153,0.141,0.222,0.214,0.220,0.121,0.079,northeast,0.8,No
2022/03/19,15:30,0.153,0.141,0.220,0.215,0.218,0.122,0.078,north,1.3,No
2022/03/19,15:40,0.154,0.141,0.222,0.215,0.220,0.122,0.078,north,3.7,No
2022/03/19,15:50,0.153,0.141,0.222,0.214,0.219,0.121,0.078,north-northeast,2.7,No
2022/03/19,16:00,0.153,0.141,0.221,0.216,0.221,0.120,0.078,southeast,3.2,No
2022/03/19,16:10,0.153,0.141,0.222,0.216,0.219,0.122,0.078,southeast,1.9,No
2022/03/19,16:20,0.153,0.142,0.221,0.215,0.219,0.122,0.078,southeast,1.6,No
2022/03/19,16:30,0.153,0.140,0.221,0.215,0.220,0.123,0.077,east-southeast,1.4,No
2022/03/19,16:40,0.153,0.141,0.222,0.215,0.218,0.122,0.078,east,2.9,No
2022/03/19,16:50,0.152,0.141,0.222,0.215,0.219,0.122,0.078,east,2.4,No
2022/03/19,17:00,0.154,0.141,0.223,0.215,0.220,0.122,0.078,east-northeast,1.6,No
2022/03/19,17:10,0.153,0.141,0.222,0.216,0.219,0.123,0.078,east,1.0,Yes
2022/03/19,17:20,0.153,0.142,0.222,0.215,0.218,0.122,0.078,-,CALM,Yes
2022/03/19,17:30,0.154,0.141,0.222,0.215,0.220,0.122,0.078,south,0.8,Yes
2022/03/19,17:40,0.153,0.140,0.223,0.215,0.220,0.122,0.077,southeast,1.0,Yes
2022/03/19,17:50,0.154,0.143,0.223,0.215,0.219,0.122,0.079,south-southeast,0.8,Yes
2022/03/19,18:00,0.155,0.142,0.223,0.216,0.220,0.124,0.079,east-southeast,1.4,Yes
2022/03/19,18:10,0.156,0.144,0.223,0.218,0.221,0.124,0.080,southeast,1.1,Yes
2022/03/19,18:20,0.157,0.145,0.225,0.218,0.221,0.125,0.081,-,CALM,Yes
2022/03/19,18:30,0.157,0.144,0.226,0.217,0.223,0.125,0.081,northeast,1.4,Yes
2022/03/19,18:40,0.158,0.145,0.225,0.219,0.223,0.127,0.082,north-northeast,1.3,Yes
2022/03/19,18:50,0.157,0.146,0.224,0.219,0.221,0.125,0.081,north,0.7,Yes
2022/03/19,19:00,0.158,0.146,0.224,0.218,0.222,0.125,0.081,northeast,1.1,Yes
2022/03/19,19:10,0.156,0.144,0.223,0.216,0.220,0.124,0.081,north-northeast,1.0,Yes
2022/03/19,19:20,0.155,0.143,0.223,0.217,0.220,0.125,0.080,east-northeast,1.6,Yes
2022/03/19,19:30,0.156,0.142,0.222,0.216,0.220,0.124,0.080,east,3.3,Yes
2022/03/19,19:40,0.155,0.141,0.223,0.216,0.220,0.124,0.080,east,3.3,Yes
2022/03/19,19:50,0.155,0.142,0.223,0.215,0.221,0.124,0.080,east,4.1,Yes
2022/03/19,20:00,0.157,0.144,0.224,0.216,0.220,0.125,0.081,east,3.3,Yes
2022/03/19,20:10,0.158,0.145,0.225,0.218,0.221,0.126,0.082,east,2.7,Yes
2022/03/19,20:20,0.156,0.144,0.224,0.217,0.222,0.126,0.082,east,2.9,Yes
2022/03/19,20:30,0.157,0.145,0.224,0.219,0.222,0.127,0.081,east-southeast,2.1,Yes
2022/03/19,20:40,0.157,0.145,0.224,0.218,0.224,0.126,0.081,east-southeast,1.3,Yes
2022/03/19,20:50,0.158,0.144,0.224,0.218,0.222,0.127,0.083,east-northeast,1.1,Yes
2022/03/19,21:00,0.157,0.145,0.225,0.217,0.223,0.127,0.083,north-northeast,0.7,Yes
2022/03/19,21:10,0.158,0.145,0.225,0.218,0.223,0.127,0.083,northeast,1.6,Yes
2022/03/19,21:20,0.158,0.144,0.225,0.218,0.222,0.127,0.083,north-northwest,1.1,Yes
2022/03/19,21:30,0.157,0.145,0.224,0.217,0.222,0.126,0.083,northwest,1.3,Yes
2022/03/19,21:40,0.157,0.145,0.223,0.216,0.223,0.126,0.082,northeast,1.0,Yes
2022/03/19,21:50,0.158,0.145,0.224,0.216,0.223,0.126,0.082,north-northwest,1.1,Yes
2022/03/19,22:00,0.156,0.144,0.222,0.218,0.221,0.126,0.081,north,1.1,Yes
2022/03/19,22:10,0.156,0.145,0.223,0.216,0.221,0.124,0.081,north,0.7,Yes
2022/03/19,22:20,0.156,0.144,0.222,0.215,0.221,0.124,0.081,-,CALM,Yes
2022/03/19,22:30,0.156,0.142,0.222,0.215,0.220,0.124,0.081,-,CALM,Yes
2022/03/19,22:40,0.157,0.143,0.221,0.215,0.220,0.124,0.080,east-southeast,1.3,Yes
2022/03/19,22:50,0.153,0.143,0.222,0.215,0.220,0.123,0.080,south-southeast,1.9,Yes
2022/03/19,23:00,0.154,0.141,0.220,0.214,0.219,0.124,0.079,south-southeast,1.8,Yes
2022/03/19,23:10,0.154,0.141,0.221,0.214,0.219,0.123,0.079,south-southeast,1.9,Yes
2022/03/19,23:20,0.154,0.141,0.220,0.214,0.220,0.122,0.079,south,2.1,No
2022/03/19,23:30,0.153,0.142,0.219,0.213,0.218,0.124,0.078,south,2.2,Yes
2022/03/19,23:40,0.154,0.140,0.219,0.213,0.218,0.122,0.078,south,3.3,Yes
2022/03/19,23:50,0.154,0.140,0.219,0.213,0.218,0.121,0.079,south,3.3,No
